| time (UTC) | temp C | wind direction | speed KPH | gust KPH | rain 1hr cm | rain 24hr cm | rain mn cm | humidity % | barometer mb |
| 20260507000034 | 6 | 0 | 0.0 | 4.8 | 0.00 | 1.22 | 1.17 | 96 | 1008.2 |
| 20260506234534 | 6 | 0 | 0.0 | 4.8 | 0.00 | 1.22 | 1.17 | 96 | 1007.7 |
| 20260506233037 | 6 | 49 | 0.0 | 3.2 | 0.00 | 1.22 | 1.17 | 96 | 1007.6 |
| 20260506231534 | 6 | 44 | 1.6 | 6.4 | 0.03 | 1.22 | 1.17 | 96 | 1007.4 |
| 20260506230035 | 6 | 351 | 1.6 | 4.8 | 0.03 | 1.22 | 1.17 | 96 | 1007.5 |
| 20260506224534 | 6 | 354 | 1.6 | 6.4 | 0.03 | 1.22 | 1.17 | 96 | 1007.4 |
| 20260506223032 | 6 | 342 | 1.6 | 6.4 | 0.03 | 1.22 | 1.17 | 96 | 1007.5 |
| 20260506221533 | 6 | 24 | 3.2 | 6.4 | 0.00 | 1.19 | 1.14 | 95 | 1007.5 |
| 20260506220036 | 6 | 354 | 1.6 | 4.8 | 0.00 | 1.19 | 1.14 | 95 | 1007.5 |
| 20260506214532 | 6 | 21 | 3.2 | 8.0 | 0.00 | 1.19 | 1.14 | 95 | 1007.5 |
| 20260506213038 | 6 | 50 | 3.2 | 9.7 | 0.00 | 1.19 | 1.14 | 95 | 1007.3 |
| 20260506211532 | 7 | 49 | 4.8 | 8.0 | 0.00 | 1.19 | 1.14 | 95 | 1007.2 |
| 20260506210036 | 6 | 30 | 3.2 | 8.0 | 0.03 | 1.19 | 1.14 | 95 | 1007.5 |
| 20260506204536 | 6 | 34 | 4.8 | 11.3 | 0.05 | 1.22 | 1.14 | 95 | 1007.6 |
| 20260506203041 | 6 | 8 | 4.8 | 9.7 | 0.05 | 1.22 | 1.14 | 95 | 1007.7 |
| 20260506201537 | 6 | 28 | 6.4 | 12.9 | 0.05 | 1.22 | 1.14 | 95 | 1007.5 |
| 20260506200040 | 6 | 340 | 6.4 | 12.9 | 0.03 | 1.19 | 1.12 | 95 | 1007.6 |
| 20260506194536 | 6 | 18 | 6.4 | 16.1 | 0.00 | 1.22 | 1.09 | 95 | 1007.3 |
| 20260506193033 | 6 | 11 | 4.8 | 12.9 | 0.03 | 1.22 | 1.09 | 95 | 1007.3 |
| 20260506191535 | 7 | 345 | 1.6 | 9.7 | 0.03 | 1.22 | 1.09 | 96 | 1007.2 |
| 20260506190037 | 6 | 47 | 4.8 | 12.9 | 0.03 | 1.22 | 1.09 | 95 | 1007.2 |
| 20260506184545 | 6 | 25 | 4.8 | 9.7 | 0.03 | 1.57 | 1.09 | 95 | 1007.5 |
| 20260506183034 | 6 | 20 | 4.8 | 11.3 | 0.03 | 1.55 | 1.07 | 96 | 1007.5 |
| 20260506181534 | 6 | 34 | 1.6 | 11.3 | 0.05 | 1.55 | 1.07 | 95 | 1007.7 |
| 20260506180035 | 6 | 63 | 6.4 | 9.7 | 0.05 | 1.55 | 1.07 | 95 | 1007.8 |
| 20260506174537 | 6 | 25 | 4.8 | 11.3 | 0.10 | 1.60 | 1.07 | 95 | 1008.3 |
| 20260506173055 | 6 | 26 | 4.8 | 12.9 | 0.10 | 1.57 | 1.04 | 95 | 1008.2 |
| 20260506171537 | 6 | 44 | 3.2 | 9.7 | 0.13 | 1.55 | 1.02 | 96 | 1008.3 |
| 20260506170040 | 6 | 47 | 6.4 | 12.9 | 0.18 | 1.55 | 1.02 | 96 | 1007.9 |
| 20260506164535 | 6 | 41 | 4.8 | 11.3 | 0.18 | 1.47 | 0.97 | 96 | 1008.4 |
| 20260506163038 | 6 | 46 | 4.8 | 9.7 | 0.18 | 1.45 | 0.91 | 96 | 1008.3 |
| 20260506161538 | 5 | 52 | 3.2 | 12.9 | 0.23 | 1.42 | 0.89 | 96 | 1008.7 |
| 20260506160038 | 5 | 41 | 4.8 | 14.5 | 0.23 | 1.37 | 0.84 | 96 | 1008.6 |
| 20260506154537 | 5 | 49 | 8.0 | 14.5 | 0.23 | 1.32 | 0.79 | 96 | 1008.9 |
| 20260506153032 | 5 | 42 | 8.0 | 12.9 | 0.20 | 1.27 | 0.74 | 95 | 1008.8 |
| 20260506151536 | 5 | 2 | 8.0 | 14.5 | 0.18 | 1.19 | 0.66 | 95 | 1009.2 |
| 20260506150035 | 5 | 44 | 4.8 | 11.3 | 0.15 | 1.14 | 0.61 | 95 | 1008.8 |
| 20260506144542 | 5 | 56 | 8.0 | 14.5 | 0.13 | 1.09 | 0.56 | 95 | 1008.5 |
| 20260506143040 | 6 | 53 | 6.4 | 16.1 | 0.08 | 1.04 | 0.51 | 95 | 1008.8 |
| 20260506141534 | 5 | 41 | 6.4 | 17.7 | 0.08 | 1.02 | 0.48 | 95 | 1008.8 |
| 20260506140033 | 6 | 1 | 6.4 | 11.3 | 0.08 | 0.99 | 0.46 | 95 | 1009.1 |
| 20260506134539 | 6 | 50 | 6.4 | 11.3 | 0.10 | 0.97 | 0.43 | 95 | 1008.9 |
| 20260506133034 | 6 | 61 | 6.4 | 14.5 | 0.13 | 0.97 | 0.43 | 94 | 1008.7 |
| 20260506131548 | 6 | 30 | 6.4 | 12.9 | 0.13 | 0.94 | 0.41 | 94 | 1009.1 |
| 20260506130053 | 6 | 44 | 4.8 | 8.0 | 0.15 | 0.91 | 0.38 | 94 | 1008.9 |
| 20260506124535 | 6 | 31 | 4.8 | 8.0 | 0.13 | 0.86 | 0.33 | 93 | 1009.3 |
| 20260506123037 | 6 | 42 | 3.2 | 6.4 | 0.15 | 0.84 | 0.30 | 93 | 1009.1 |
| 20260506121539 | 6 | 0 | 0.0 | 4.8 | 0.15 | 0.81 | 0.28 | 92 | 1009.5 |
| 20260506120034 | 6 | 338 | 1.6 | 8.0 | 0.10 | 0.76 | 0.23 | 90 | 1009.9 |
| 20260506114535 | 7 | 13 | 1.6 | 9.7 | 0.08 | 0.74 | 0.20 | 88 | 1009.7 |
| 20260506113040 | 7 | 28 | 3.2 | 8.0 | 0.05 | 0.69 | 0.15 | 90 | 1009.3 |
| 20260506111540 | 7 | 0 | 0.0 | 0.0 | 0.03 | 0.66 | 0.13 | 94 | 1009.0 |
| 20260506110043 | 7 | 0 | 0.0 | 0.0 | 0.03 | 0.66 | 0.13 | 94 | 1008.9 |
| 20260506104547 | 7 | 0 | 0.0 | 0.0 | 0.03 | 0.66 | 0.13 | 93 | 1009.0 |
| 20260506103047 | 7 | 0 | 0.0 | 0.0 | 0.00 | 0.64 | 0.10 | 92 | 1009.0 |
| 20260506101548 | 7 | 0 | 0.0 | 0.0 | 0.00 | 0.64 | 0.10 | 91 | 1008.7 |
| 20260506100048 | 7 | 0 | 0.0 | 0.0 | 0.03 | 0.64 | 0.10 | 91 | 1008.9 |
| 20260506094540 | 8 | 0 | 0.0 | 0.0 | 0.03 | 0.64 | 0.10 | 91 | 1008.9 |
| 20260506093041 | 8 | 0 | 0.0 | 0.0 | 0.03 | 0.64 | 0.10 | 91 | 1009.3 |
| 20260506091539 | 8 | 0 | 0.0 | 1.6 | 0.03 | 0.64 | 0.10 | 88 | 1009.1 |
| 20260506090038 | 8 | 0 | 0.0 | 1.6 | 0.00 | 0.61 | 0.08 | 85 | 1009.4 |
| 20260506084549 | 8 | 49 | 1.6 | 6.4 | 0.00 | 0.61 | 0.08 | 83 | 1009.2 |
| 20260506083039 | 8 | 0 | 3.2 | 9.7 | 0.00 | 0.61 | 0.08 | 85 | 1009.1 |
| 20260506081541 | 9 | 0 | 3.2 | 11.3 | 0.00 | 0.61 | 0.08 | 86 | 1009.2 |
| 20260506073043 | 9 | 0 | 0.0 | 6.4 | 0.00 | 0.61 | 0.08 | 92 | 1008.6 |
| 20260506071537 | 9 | 83 | 0.0 | 4.8 | 0.00 | 0.61 | 0.08 | 91 | 1008.8 |
| 20260506061534 | 10 | 115 | 0.0 | 4.8 | 0.00 | 0.61 | 0.08 | 90 | 1008.7 |
| 20260506044615 | 11 | 0 | 0.0 | 1.6 | 0.13 | 0.61 | 0.08 | 91 | 1008.4 |
| 20260506043032 | 11 | 0 | 0.0 | 6.4 | 0.10 | 0.58 | 0.05 | 90 | 1008.7 |
| 20260506041536 | 11 | 0 | 0.0 | 8.0 | 0.08 | 0.56 | 0.03 | 86 | 1008.3 |
| 20260506040036 | 12 | 0 | 0.0 | 6.4 | 0.05 | 0.53 | 0.00 | 81 | 1008.0 |
| 20260506034600 | 13 | 307 | 6.4 | 14.5 | 0.00 | 0.48 | 0.48 | 75 | 1007.8 |
| 20260506033036 | 13 | 312 | 8.0 | 22.5 | 0.00 | 0.48 | 0.48 | 74 | 1007.8 |
| 20260506031534 | 13 | 321 | 6.4 | 12.9 | 0.00 | 0.48 | 0.48 | 72 | 1007.6 |
| 20260506030038 | 14 | 342 | 3.2 | 11.3 | 0.00 | 0.48 | 0.48 | 70 | 1007.6 |
| 20260506024535 | 15 | 311 | 6.4 | 17.7 | 0.00 | 0.48 | 0.48 | 69 | 1007.4 |
| 20260506023047 | 15 | 309 | 9.7 | 16.1 | 0.00 | 0.48 | 0.48 | 67 | 1007.3 |
| 20260506021534 | 15 | 339 | 3.2 | 8.0 | 0.00 | 0.48 | 0.48 | 70 | 1007.0 |
| 20260506020032 | 15 | 323 | 3.2 | 6.4 | 0.00 | 0.48 | 0.48 | 70 | 1007.0 |
| 20260506014533 | 16 | 283 | 8.0 | 14.5 | 0.00 | 0.48 | 0.48 | 69 | 1007.2 |
| 20260506013040 | 16 | 324 | 6.4 | 17.7 | 0.00 | 0.48 | 0.48 | 73 | 1006.6 |
| 20260506011533 | 17 | 338 | 8.0 | 17.7 | 0.00 | 0.48 | 0.48 | 73 | 1006.0 |
| 20260506010042 | 17 | 283 | 4.8 | 8.0 | 0.00 | 0.48 | 0.48 | 72 | 1005.5 |
| 20260506004556 | 17 | 237 | 3.2 | 9.7 | 0.00 | 0.48 | 0.48 | 72 | 1005.1 |
| 20260506003043 | 17 | 299 | 1.6 | 6.4 | 0.00 | 0.48 | 0.48 | 72 | 1004.8 |
| 20260506001540 | 17 | 226 | 4.8 | 14.5 | 0.00 | 0.48 | 0.48 | 73 | 1004.6 |